Location: Unspecified
(0.0000°N, 0.0000°E)
Time: 00:01:30
(UTC+00:00)

DMSP B5D2-8 - Visible Passes

Search period start: 23 April 2019 00:00
Search period end: 03 May 2019 00:00
Orbit: 834 x 845 km, 98.8° (Epoch: 22 April)

Date Brightness Start Highest point End Pass type
(mag) Time Alt. Az. Time Alt. Az. Time Alt. Az.
23 Apr 6.6 04:50:44 10° NE 04:55:25 30° ESE 05:00:07 10° SSE visible
24 Apr 7.2 04:36:27 10° ENE 04:40:20 20° ESE 04:44:12 10° SSE visible
25 Apr 7.6 04:22:51 10° ENE 04:25:15 13° ESE 04:27:39 10° SE visible
25 Apr 7.6 18:45:38 10° SW 18:47:59 13° WSW 18:50:21 10° WNW visible
26 Apr 7.4 18:29:04 10° SSW 18:32:55 20° WSW 18:36:45 10° WNW visible
27 Apr 4.8 05:29:44 10° NNE 05:35:11 87° ESE 05:40:41 10° SSW visible
27 Apr 6.8 18:13:09 10° SSW 18:17:49 30° WSW 18:22:29 10° NW visible
28 Apr 5.4 05:14:44 10° NNE 05:20:05 58° ESE 05:25:28 10° S visible
29 Apr 6.2 04:59:58 10° NE 05:04:59 38° ESE 05:10:02 10° S visible
30 Apr 6.9 04:45:28 10° NE 04:49:54 26° ESE 04:54:21 10° SSE visible
01 May 7.4 04:31:22 10° ENE 04:34:49 17° ESE 04:38:16 10° SE visible
02 May 7.7 04:18:25 10° E 04:19:45 11° ESE 04:21:03 10° ESE visible
02 May 7.5 18:39:26 10° SW 18:42:28 15° WSW 18:45:30 10° WNW visible
